Find Starlink 4320

NORAD ID: 53059 Int'l Des: 2022-077 Owner: SPXS Country: US Constellation: starlink operational
LEOCIRCULARRETROGRADESSO

現在のビュー

3D地球を読み込み中...

About Starlink 4320

Starlink 4320 (NORAD 53059) is a starlink constellation satellite (v1.5) launched Jul 11, 2022 by SPXS of US. It operates in LEO, CIRCULAR, RETROGRADE, SSO orbit with a mass of 297.00 kg.

Starlink 4320について

説明を読み込み中...

次回通過

Passes for default location (London). Set your location on the main map for personalized predictions.

高度履歴

Loading altitude history...

軌道要素

1 53059U 22077S 26169.75540380 -.00000805 00000-0 -51860-4 0 9995
2 53059 97.3462 348.6479 0001519 128.2850 231.8514 15.05652149216111
Epoch: Jun 18, 2026 • Age: 11 hours

現在のステータス

高度 564.0 km
速度 7.58 km/s
衛星直下点 -37.96°S, 174.08°W
打ち上げ日 Jul 11, 2022
運用期間 3.9 years
タイプ internet

技術仕様

分類 Payload
質量 297.00 kg
乾燥質量 275.00 kg
総質量 297.00 kg
長さ 0.20 m
直径 2.80 m
スパン 9.00 m
形状 Box + pan
製造者 SPXS
バスタイプ Starlink
フェーズステータス In Orbit
所有者/国 SPXS/US

Most Searched